Location: Caltech
(34.1382°N, 118.1253°W)
Time: 01:06:55
(UTC-07:00)

Cosmos 2333 Rocket - Visible Passes

Search period start: 20 October 2014 00:00
Search period end: 30 October 2014 00:00
Orbit: 839 x 863 km, 70.9° (Epoch: 19 October)

Date Brightness Start Highest point End Pass type
(mag) Time Alt. Az. Time Alt. Az. Time Alt. Az.
20 Oct 4.7 05:11:04 10° NNE 05:15:01 19° ENE 05:18:57 10° ESE visible
20 Oct 2.1 19:58:37 10° SSW 20:04:20 72° ESE 20:06:26 40° NE visible
20 Oct 4.8 21:46:00 10° W 21:48:34 15° WNW 21:48:34 15° WNW visible
21 Oct 4.7 04:58:47 10° NNE 05:02:44 19° ENE 05:06:39 10° ESE visible
21 Oct 2.1 19:46:21 10° SSW 19:52:03 72° ESE 19:56:16 19° NNE visible
21 Oct 4.8 21:33:43 10° W 21:36:52 15° NW 21:38:23 14° NW visible
22 Oct 4.7 04:46:31 10° NNE 04:50:27 19° ENE 04:54:22 10° ESE visible
22 Oct 2.4 06:29:32 10° NNW 06:35:01 53° WSW 06:40:28 10° S visible
22 Oct 2.1 19:34:04 10° SSW 19:39:46 72° ESE 19:45:29 10° NNE visible
22 Oct 4.8 21:21:26 10° W 21:24:35 15° NW 21:27:44 10° NNW visible
23 Oct 4.6 04:34:14 10° NNE 04:38:10 19° ENE 04:42:05 10° ESE visible
23 Oct 2.3 06:17:15 10° NNW 06:22:44 53° WSW 06:28:11 10° S visible
23 Oct 2.1 19:21:47 10° SSW 19:27:29 72° ESE 19:33:12 10° NNE visible
23 Oct 4.9 21:09:09 10° W 21:12:18 15° NW 21:15:27 10° NNW visible
24 Oct 4.6 04:21:57 10° NNE 04:25:53 19° ENE 04:29:48 10° ESE visible
24 Oct 2.3 06:04:58 10° NNW 06:10:27 53° WSW 06:15:53 10° S visible
24 Oct 2.2 19:09:30 10° SSW 19:15:12 72° ESE 19:20:55 10° NNE visible
24 Oct 4.9 20:56:52 10° W 21:00:01 15° NW 21:03:10 10° NNW visible
25 Oct 4.6 04:09:40 10° NNE 04:13:36 19° ENE 04:17:30 10° ESE visible
25 Oct 2.3 05:52:41 10° NNW 05:58:10 53° WSW 06:03:36 10° S visible
25 Oct 2.2 18:57:13 10° SSW 19:02:55 72° ESE 19:08:38 10° NNE visible
25 Oct 4.9 20:44:35 10° W 20:47:44 15° NW 20:50:53 10° NNW visible
26 Oct 4.5 03:58:56 15° NNE 04:01:19 19° ENE 04:05:13 10° ESE visible
26 Oct 2.3 05:41:05 14° NNW 05:45:53 53° WSW 05:51:19 10° S visible
26 Oct 2.2 18:44:56 10° SSW 18:50:38 72° ESE 18:56:21 10° NNE visible
26 Oct 4.9 20:32:18 10° W 20:35:27 15° NW 20:38:36 10° NNW visible
27 Oct 4.5 03:48:53 19° NE 03:49:02 19° ENE 03:52:56 10° ESE visible
27 Oct 2.2 05:31:02 30° NW 05:33:36 53° WSW 05:39:02 10° S visible
27 Oct 2.2 18:32:39 10° SSW 18:38:21 72° ESE 18:44:04 10° NNE visible
27 Oct 4.9 20:20:01 10° W 20:23:10 15° NW 20:26:19 10° NNW visible
28 Oct 4.7 03:38:48 16° E 03:38:48 16° E 03:40:39 10° E visible
28 Oct 2.2 05:20:56 52° W 05:21:19 53° WSW 05:26:45 10° S visible
28 Oct 2.3 18:20:22 10° SSW 18:26:05 72° ESE 18:31:47 10° NNE visible
28 Oct 4.9 20:07:44 10° W 20:10:53 15° NW 20:14:02 10° NNW visible
29 Oct 2.8 05:10:45 39° SSW 05:10:45 39° SSW 05:14:28 10° S visible
29 Oct 4.9 19:55:27 10° W 19:58:36 15° NW 20:01:45 10° NNW visible
